Simultaneous Nadir Overpasses (SNOs) Predictions

Prediction of SNOs between GOES-16 and NOAA-19 Satellite Orbit:

Table of predicted SNOs for the next 14.0 days since TLE Epoch: 8/28/2020
Index Date Time (GOES-16) GOES-16 Lat,Lon NOAA-19 Lat,Lon Distance(km) Time Diff (sec)
1 08/30/2020 23:22:34 0.04, -75.18 -0.76, -78.53 383.75 80
2 08/31/2020 23:10:53 0.05, -75.18 -0.09, -75.68 57.62 80
3 09/01/2020 22:56:31 0.05, -75.18 0.59, -72.83 268.79 80
4 09/04/2020 11:20:08 -0.05, -75.21 0.56, -77.78 293.40 80
5 09/05/2020 11:05:47 -0.05, -75.22 -0.13, -74.93 33.74 80
6 09/06/2020 10:54:05 -0.05, -75.23 -0.82, -72.07 361.02 80
7 09/08/2020 23:17:44 0.05, -75.24 -0.38, -77.02 203.77 80
8 09/09/2020 23:03:22 0.05, -75.26 0.29, -74.17 123.62 80
9 09/10/2020 22:51:41 0.05, -75.27 0.97, -71.32 451.02 80
